sat.trackr.live / text

‹ back to catalog

STARLINK-32912

NORAD 63088 · 2025-037M

PAYLOAD ACTIVE UNKNOWN

§ Identity

Operator
Country
US
Launch date
2025-02-23
Launch site
AFWTR
Launch vehicle
Mass (kg)
RCS (m²)

Purposes: comms

External: N2YO · Heavens-Above · Gunter

§ Orbital elements

Epoch: 2026-09-20T22:00:03.000096Z

Period
94.09 min
Inclination
69.9995°
Eccentricity
0.0002883
Mean motion
15.30432086 rev/d
Perigee alt
472.5 km
Apogee alt
476.5 km
Semi-major
6,852.7 km
B*
-1.5909e-4
RAAN
219.8691°
Arg perigee
267.0024°
Mean anomaly
110.3156°
Rev number
577

§ Raw data

STARLINK-329121 63088U 25037M   26263.91670139 -.00004821  00000+0 -15909-3 0  99902 63088  69.9995 219.8691 0002883 267.0024 110.3156 15.30432086  5770

JSON: /api/v1/satellites/63088 · /tle

For live sub-satellite position, see the globe view (requires WebGL).

§ Visibility from observer

Set your observer location to see the next 7 days of passes ≥ 10°. The values pass through the URL so the page stays shareable.

No JS? Fill the form by hand. The geolocation button needs JavaScript.